Skip Page Navigation
NASA JPL Caltech
NASA Logo - Jet Propulsion Laboratory + View the NASA Portal
+ Center for Near-Earth Object Studies
JPL Home Earth Solar System Stars & Galaxies Technology
JPL Solar System Dynamics
BODIES ORBITS EPHEMERIDES TOOLS PHYSICAL DATA DISCOVERY FAQ SITE MAP
JPL Small-Body Database Browser
Search: [ help ]  
183639 (2003 WO24)
Classification: Main-belt Asteroid          SPK-ID: 2183639
Ephemeris | Orbit Diagram | Orbital Elements | Mission Design | Physical Parameters | Discovery Circumstances | Close-Approach Data ]

[ show orbit diagram ]
Orbital Elements at Epoch 2459000.5 (2020-May-31.0) TDB
Reference: JPL 13 (heliocentric ecliptic J2000)
 Element Value Uncertainty (1-sigma)   Units 
e .2208385602533764 5.3583e-08  
a 2.164912487798439 1.6462e-08 au
q 1.686816330918476 1.1784e-07 au
i 3.660103155016716 6.0458e-06 deg
node 344.4685079948215 0.00012405 deg
peri 358.0565556743839 0.00012658 deg
M 123.8313492658493 3.2141e-05 deg
tp 2458600.290817037983
(2019-Apr-26.79081704)
0.00010007 TDB
period 1163.480061555461
3.19
1.3271e-05
3.633e-08
d
yr
n .3094165614825531 3.5293e-09 deg/d
Q 2.643008644678402 2.0098e-08 au
  Orbit Determination Parameters
   # obs. used (total)      230  
   data-arc span      5889 days (16.12 yr)  
   first obs. used      2003-11-20  
   last obs. used      2020-01-04  
   planetary ephem.      DE431  
   SB-pert. ephem.      SB431-N16  
   condition code      0  
   norm. resid. RMS      .53415  
   source      ORB  
   producer      Otto Matic  
   solution date      2020-Feb-24 19:39:39  

Additional Information
 Earth MOID = .678816 au 
 Jupiter MOID = 2.75982 au 
 T_jup = 3.659 
[ hide covariance matrix ]
Orbital Elements at Epoch 2456813.5 (2014-Jun-05.0) TDB
Reference: JPL 13 (heliocentric ecliptic J2000)
 Element Value Uncertainty (1-sigma)   Units 
e .2212709998145738 5.3763e-08  
q 1.685718683177979 1.1826e-07 au
tp 2456274.018965041666
(2012-Dec-12.51896504)
7.951e-05 TDB
node 344.5384779334055 0.00012392 deg
peri 358.0329384811771 0.00012643 deg
i 3.66279206164139 6.05e-06 deg
  Orbit Determination Parameters
   # obs. used (total)      230  
   data-arc span      5889 days (16.12 yr)  
   first obs. used      2003-11-20  
   last obs. used      2020-01-04  
   planetary ephem.      DE431  
   SB-pert. ephem.      SB431-N16  
   condition code      0  
   norm. resid. RMS      .53415  
   source      ORB  
   producer      Otto Matic  
   solution date      2020-Feb-24 19:39:39  

Additional Information
 Jupiter MOID = 2.75982 au 
 T_jup = 3.659 
Orbit Covariance (6×6)
  e q tp node peri i
e 2.890435072487787E-15 -6.321926176678004E-15 1.07793261044869E-12 3.539680221693173E-14 3.70075433540073E-13 3.862917226493885E-15
q -6.321926176678004E-15 1.398625245118295E-14 -1.635839656910338E-12 -8.927450711542139E-14 -5.734384437689598E-13 -7.291933223994669E-15
tp 1.07793261044869E-12 -1.635839656910338E-12 6.321872489096401E-9 -6.250526058856274E-11 2.06644221481471E-9 8.944113855290617E-12
node 3.539680221693173E-14 -8.927450711542139E-14 -6.250526058856274E-11 1.535520945227911E-8 -1.534157159920148E-8 3.248953373171332E-10
peri 3.70075433540073E-13 -5.734384437689598E-13 2.06644221481471E-9 -1.534157159920148E-8 1.598453739969251E-8 -3.214171296537219E-10
i 3.862917226493885E-15 -7.291933223994669E-15 8.944113855290617E-12 3.248953373171332E-10 -3.214171296537219E-10 3.660194876957474E-11

Ephemeris | Orbit Diagram | Orbital Elements | Mission Design | Physical Parameters | Discovery Circumstances | Close-Approach Data ]

Physical Parameter Table
Parameter Symbol Value Units Sigma Reference Notes
absolute magnitude H 17.4   n/a MPO449925  

183639 (2003 WO24)          Discovered 2003-Nov-20 by LINEAR at Socorro
Reference: 20080420/Numbers.arcLast Updated: 2008-04-23

[ show close-approach data ]
Alternate Designations
 2003 WO24 = 2006 QS119 
Ephemeris | Orbit Diagram | Orbital Elements | Mission Design | Physical Parameters | Discovery Circumstances | Close-Approach Data ]
ABOUT SSD CREDITS/AWARDS PRIVACY/COPYRIGHT GLOSSARY LINKS
FirstGov 2020-Aug-03 10:10 UT
(server date/time)  
NASA Home Page
Site Manager:   Ryan S. Park
Webmaster  Alan B. Chamberlin